Weather History for Valladolid Airport, Spain

Change the Weather History Date:

Tuesday, December 10, 2013

  Actual Average Record
Temperature  
Mean Temperature 34 °F -  
Max Temperature 46 °F - - ()
Min Temperature 21 °F - - ()
Degree Days  
Heating Degree Days 32    
Moisture  
Dew Point 28 °F    
Average Humidity 78    
Maximum Humidity 100    
Minimum Humidity 50    
Precipitation  
Precipitation 0.00 in - - ()
Sea Level Pressure  
Sea Level Pressure 30.38 in    
Wind  
Wind Speed 4 mph ()    
Max Wind Speed 9 mph    
Max Gust Speed -    
Visibility 4.5 miles    
Events      
T = Trace of Precipitation, MM = Missing Value Source: Averaged Metar Reports

Daily Weather History Graph

Daily Weather History Graph

Search for Another Location

Airport:

Trip Planner

Search our weather history database for the weather conditions in past years. The results will help you decide how hot, cold, wet, or windy it might be!

Date:

Astronomy

Dec. 10, 2013 Rise Set
Actual Time 8:35 AM CET 5:48 PM CET
Civil Twilight 8:04 AM CET 6:20 PM CET
Nautical Twilight 7:29 AM CET 6:55 PM CET
Astronomical Twilight 6:55 AM CET 7:28 PM CET
Moon 1:47 PM CET (12/10) 1:33 AM CET (12/10)
Length of Visible Light 10h 16m
Length of Day
9h 13m
First Quarter, 59% of the Moon is Illuminated
Dec 10
First Quarter
Dec 17
Full
Dec 25
Last Quarter
Jan 1
New
Jan 8
First Quarter

Hourly Weather History & Observations

Time (CET) Temp. Windchill Dew Point Humidity Pressure Visibility Wind Dir Wind Speed Gust Speed Precip Events Conditions
7:00 AM 23.0 °F 15.8 °F 23.0 °F 100% 30.39 in - East 5.8 mph - N/A   Clear
7:30 AM 23.0 °F 15.8 °F 23.0 °F 100% 30.39 in 4.3 mi East 5.8 mph - N/A   Unknown
8:00 AM 23.0 °F 18.4 °F 23.0 °F 100% 30.39 in 3.7 mi East 3.5 mph - N/A   Unknown
8:30 AM 21.2 °F 14.9 °F 21.2 °F 100% 30.39 in 3.7 mi East 4.6 mph - N/A   Unknown
9:00 AM 23.0 °F 14.7 °F 23.0 °F 100% 30.39 in 3.7 mi East 6.9 mph - N/A   Unknown
9:30 AM 24.8 °F 20.5 °F 24.8 °F 100% 30.42 in 4.3 mi East 3.5 mph - N/A   Unknown
10:00 AM 28.4 °F - 26.6 °F 93% 30.42 in 5.0 mi East 2.3 mph - N/A   Unknown
10:30 AM 30.2 °F 26.7 °F 28.4 °F 93% 30.42 in 5.6 mi East 3.5 mph - N/A   Unknown
11:00 AM 32.0 °F 28.7 °F 30.2 °F 93% 30.42 in 5.6 mi East 3.5 mph - N/A   Unknown
11:30 AM 33.8 °F 30.8 °F 30.2 °F 87% 30.42 in - ENE 3.5 mph - N/A   Clear
12:00 PM 35.6 °F 32.8 °F 30.2 °F 81% 30.42 in - ENE 3.5 mph - N/A   Clear
12:30 PM 37.4 °F - 30.2 °F 75% 30.42 in - Variable 2.3 mph - N/A   Clear
1:00 PM 41.0 °F - 30.2 °F 65% 30.39 in - Variable 2.3 mph - N/A   Clear
1:30 PM 42.8 °F 41.1 °F 32.0 °F 66% 30.39 in - NE 3.5 mph - N/A   Clear
2:00 PM 44.6 °F 43.1 °F 30.2 °F 57% 30.39 in - East 3.5 mph - N/A   Clear
2:30 PM 46.4 °F 44.3 °F 30.2 °F 53% 30.39 in - East 4.6 mph - N/A   Clear
3:00 PM 46.4 °F 43.5 °F 30.2 °F 53% 30.36 in - ENE 5.8 mph - N/A   Clear
3:30 PM 46.4 °F 44.3 °F 28.4 °F 50% 30.36 in - East 4.6 mph - N/A   Clear
4:00 PM 46.4 °F 45.2 °F 28.4 °F 50% 30.36 in - East 3.5 mph - N/A   Clear
4:30 PM 46.4 °F 45.2 °F 28.4 °F 50% 30.36 in - East 3.5 mph - N/A   Clear
5:00 PM 46.4 °F - 28.4 °F 50% 30.36 in - ENE 2.3 mph - N/A   Clear
5:30 PM 41.0 °F - 28.4 °F 61% 30.36 in - ENE 2.3 mph - N/A   Clear
6:00 PM 37.4 °F 32.8 °F 28.4 °F 70% 30.36 in - ENE 5.8 mph - N/A   Clear
6:30 PM 33.8 °F 28.6 °F 26.6 °F 75% 30.36 in - NNE 5.8 mph - N/A   Clear
7:00 PM 33.8 °F 27.7 °F 28.4 °F 81% 30.36 in - NNE 6.9 mph - N/A   Clear
7:30 PM 32.0 °F 24.2 °F 28.4 °F 87% 30.36 in - NE 9.2 mph - N/A   Clear
8:00 PM 32.0 °F 27.5 °F 26.6 °F 80% 30.36 in - ENE 4.6 mph - N/A   Clear
8:30 PM 32.0 °F 25.6 °F 28.4 °F 87% 30.36 in - ENE 6.9 mph - N/A   Clear
9:00 PM 30.2 °F 23.4 °F 26.6 °F 86% 30.36 in - ENE 6.9 mph - N/A   Clear
9:30 PM 33.8 °F 27.7 °F 30.2 °F 87% 30.36 in - East 6.9 mph - N/A   Clear